Location: Marsån
(66.4167°N, 22.2833°E)
Time: 11:16:18
(UTC+00:00)

ARGOS Delta rocket - Pass Details

Date: 24 February 2024
Orbit: 634 x 831 km, 96.5° (Epoch: 16 April)

Event Time Altitude Azimuth Distance (km) Brightness Sun altitude
Exits shadow 20:09:04 52° 1° (N) 801 4.2 -27.2°
Drops below altitude 10° 20:12:31 10° 345° (NNW) 2,054 7.0 -27.5°
Sets 20:14:46 0° 343° (NNW) 2,982 8.0 -27.6°
